Regional Weather Roundup
Issued by NWS

Home | Current Version | Previous Version | Text Only | Print | Product List | Glossary On
Versions: 1 2 3 4 5 6 7 8 9 10 11 12 13 14 15 16 17 18 19 20 21 22 23 24 25 26 27 28 29 30 31 32 33 34 35 36 37 38 39 40 41 42 43 44 45 46 47 48 49 50
000
ASUS43 KIND 272259
RWRIN

WEATHER ROUNDUP FOR INDIANA
NATIONAL WEATHER SERVICE INDIANAPOLIS IN
600 PM EST FRI FEB 27 2015

NOTE: "FAIR" INDICATES FEW OR NO CLOUDS BELOW 12,000 FEET WITH NO
SIGNIFICANT WEATHER AND/OR OBSTRUCTIONS TO VISIBILITY.

* - STATION DOES NOT REPORT WEATHER SUCH AS PRECIPITATION OR FOG.

+ - STATION NOT QUALITY CONTROLLED BY THE NATIONAL WEATHER SERVICE.
    USE DATA WITH CAUTION...ESPECIALLY DEWPOINT AND RELATIVE
    HUMIDITY OBSERVATIONS.

INZ001>003-010>013-019-020-280000-
NORTHWEST INDIANA

CITY           SKY/WX    TMP DP  RH WIND       PRES   REMARKS
GARY /AIRPORT/ CLEAR     18  -9  29 SW10      30.62R WCI   6
KNOX *+          N/A     12 -17  26 SW8       30.61R WCI   1
MONTICELLO +   CLEAR     12   1  59 W6        30.62S WCI   3
VALPARAISO     NOT AVBL

$$

LMZ046-743>745-280000-
SOUTHERN LAKE MICHIGAN

STATION/POSITION TIME  TEMP WIND        PRES
                       AIR  DIR/SP/G
                 (UTC) (F)  (DEG/KT/KT) (MB)
MICHIGAN CITY    2200   16  230/  3/  4   N/A

$$

INZ004-005-014>016-021>024-280000-
NORTH CENTRAL INDIANA

CITY           SKY/WX    TMP DP  RH WIND       PRES   REMARKS
ELKHART        CLEAR     16  -4  41 S9        30.59R WCI   4
GOSHEN         CLEAR     15   3  59 SW7       30.59R WCI   5
SOUTH BEND     CLEAR     16   0  49 SW10      30.59R WCI   4

$$

INZ006>009-017-018-025>027-280000-
NORTHEAST INDIANA

CITY           SKY/WX    TMP DP  RH WIND       PRES   REMARKS
ANGOLA *+      CLEAR     16   1  53 W5        30.56R WCI   9
FORT WAYNE     PTCLDY    13   2  61 W6        30.60R WCI   4

$$

INZ028-029-035-036-043>045-051>053-280000-
WEST CENTRAL INDIANA

CITY           SKY/WX    TMP DP  RH WIND       PRES   REMARKS
CRAWFORDSVL +  CLEAR     12  -9  39 N3        30.60F
GREENCASTLE +  CLEAR     14  -4  44 N6        30.61S WCI   5
LAFAYETTE      CLEAR     13  -2  51 N7        30.63R WCI   3
TERRE HAUTE    CLEAR     16  -2  45 N6        30.63S WCI   7

$$

INZ030>032-037>040-046>048-054>057-064-065-280000-
CENTRAL INDIANA

CITY           SKY/WX    TMP DP  RH WIND       PRES   REMARKS
CP ATTERBURY + CLEAR     19   1  45 CALM      30.61S
COLUMBUS       PTCLDY    12  -2  52 NE9       30.62R WCI   0
FRANKFORT +    CLEAR     15   0  52 N6        30.62R WCI   6
GREENWOOD *+   CLEAR     16  -6  38 NW3       30.60S
INDIANAPOLIS   PTCLDY    16  -3  43 N8        30.59S WCI   5
-EAGLE CREEK   CLEAR     13  -3  49 W5        30.60S WCI   5
KOKOMO *+      CLEAR     16   3  57 NW7       30.61R WCI   6
MT COMFORT *+  CLEAR     16  -9  32 N6        30.60S WCI   7
SHELBYVILLE    CLEAR     17   1  49 N6        30.59S WCI   9
ZIONSVILLE +   CLEAR     15  -2  47 CALM      30.60S

$$

INZ033-034-041-042-049-050-058-059-280000-
EAST CENTRAL INDIANA

CITY           SKY/WX    TMP DP  RH WIND       PRES   REMARKS
MUNCIE         CLEAR     14   1  56 NW5       30.60R WCI   6

$$

INZ060-061-067>069-081>083-085>088-280000-
SOUTHWEST INDIANA

CITY           SKY/WX    TMP DP  RH WIND       PRES   REMARKS
EVANSVILLE     PTCLDY    22   7  52 N6        30.64R WCI  14
HUNTINGBURG *+ CLEAR     21   5  49 NW8       30.63R WCI  12

$$

INZ062-063-066-070>080-084-089>092-280000-
SOUTH CENTRAL AND SOUTHEAST INDIANA

CITY           SKY/WX    TMP DP  RH WIND       PRES   REMARKS
BLOOMINGTON    CLEAR     21  -1  38 CALM      30.59R
SEYMOUR +      CLEAR     21   5  49 N6        30.61S WCI  14

$$



USA.gov is the U.S. government's official web portal to all federal, state and local government web resources and services.